DW1546 Weather Reports


Display with metric or nautical units.
time (UTC)temp
F
wind
direction
speed
MPH
gust
MPH
rain 1hr
in
rain 24hr
in
rain mn
in
humidity
%
barometer
mb
20260504081525 42 232 0.0 0.0 0.00 0.00 0.00 92 1016.1
20260504050000 40 232 0.0 0.0 0.00 0.00 0.00 84 1016.4
20260504044605 40 232 0.0 0.0 0.00 0.00 0.00 84 1016.3
20260504043100 40 232 0.0 0.0 0.00 0.00 0.00 83 1016.4
20260504041556 41 232 0.0 0.0 0.00 0.00 0.00 82 1016.4
20260504040054 41 232 0.0 0.0 0.00 0.00 0.00 80 1016.3
20260504034608 42 232 0.0 0.0 0.00 0.00 0.00 78 1016.4
20260504033053 42 232 0.0 0.0 0.00 0.00 0.00 77 1016.3
20260504031553 43 232 0.0 0.0 0.00 0.00 0.00 76 1016.1
20260504030053 43 232 0.0 0.0 0.00 0.00 0.00 75 1015.8
20260504024551 44 232 0.0 0.0 0.00 0.00 0.00 72 1015.8
20260504023051 45 232 0.0 0.0 0.00 0.00 0.00 71 1015.9
20260504021551 46 232 0.0 0.0 0.00 0.00 0.00 66 1015.9
20260504020050 47 232 0.0 0.0 0.00 0.00 0.00 66 1015.7
20260504014602 48 232 0.0 0.0 0.00 0.00 0.00 62 1015.6
20260504013053 49 232 0.0 0.0 0.00 0.00 0.00 59 1015.6
20260504011552 50 232 0.0 0.0 0.00 0.00 0.00 57 1015.4
20260504010056 51 232 0.0 0.0 0.00 0.00 0.00 52 1015.3
20260504004548 53 232 0.0 0.0 0.00 0.00 0.00 49 1015.2
20260504003052 54 232 0.0 0.0 0.00 0.00 0.00 47 1015.1
20260504001547 56 232 0.0 0.0 0.00 0.00 0.00 42 1014.9
20260504000049 57 232 0.0 0.0 0.00 0.00 0.00 41 1014.8
20260503234550 57 232 0.0 0.0 0.00 0.00 0.00 39 1014.7
20260503233046 58 232 0.0 0.0 0.00 0.00 0.00 39 1014.5
20260503231545 59 232 0.0 0.0 0.00 0.00 0.00 36 1014.4
20260503230045 59 232 0.0 0.0 0.00 0.00 0.00 37 1014.3
20260503224544 60 232 0.0 0.0 0.00 0.00 0.00 35 1014.4
20260503223044 60 232 0.0 0.0 0.00 0.00 0.00 34 1014.4
20260503221543 61 229 0.0 0.0 0.00 0.00 0.00 33 1014.5
20260503220049 62 233 0.0 0.0 0.00 0.00 0.00 30 1014.5
20260503214542 62 265 0.0 0.0 0.00 0.00 0.00 30 1014.7
20260503213045 62 265 1.0 0.0 0.00 0.00 0.00 29 1014.5
20260503211540 62 269 0.0 0.0 0.00 0.00 0.00 31 1014.5
20260503210040 62 240 1.0 0.0 0.00 0.00 0.00 31 1014.6
20260503204540 62 321 2.0 0.0 0.00 0.00 0.00 33 1014.7
20260503203039 62 278 1.0 0.0 0.00 0.00 0.00 33 1014.7
20260503201540 62 264 1.0 0.0 0.00 0.00 0.00 32 1014.9
20260503200043 62 281 1.0 0.0 0.00 0.00 0.00 32 1015.1
20260503194541 62 288 2.0 0.0 0.00 0.00 0.00 32 1015.3
20260503193039 62 294 1.0 0.0 0.00 0.00 0.00 34 1015.5
20260503191533 61 248 1.0 0.0 0.00 0.00 0.00 35 1015.6
20260503190033 61 227 1.0 0.0 0.00 0.00 0.00 35 1015.8
20260503184531 60 232 2.0 0.0 0.00 0.00 0.00 36 1016.1
20260503183049 60 32 0.0 0.0 0.00 0.00 0.00 37 1016.1
20260503181527 60 228 1.0 0.0 0.00 0.00 0.00 34 1016.2
20260503180026 59 292 2.0 0.0 0.00 0.00 0.00 35 1016.4
20260503174525 59 342 2.0 0.0 0.00 0.00 0.00 36 1016.5
20260503173025 59 267 2.0 0.0 0.00 0.00 0.00 37 1016.7
20260503171522 58 263 1.0 0.0 0.00 0.00 0.00 37 1016.6